"2009-09-16 00:00:00",1244448,6.604,96,2.866,0.313,20.79,109.2116,22.87,23.87,27.17,0,111,13.15,23.70,58.0
"2009-09-16 00:00:30",1244449,6.896,95.3,2.503,0.276,20.81,109.2063,22.86,23.87,26.99,0,111,13.16,23.69,57.3
"2009-09-16 00:01:00",1244450,6.603,94.1,1.937,0.315,20.76,109.2043,22.85,23.86,26.73,0,111,13.16,23.68,56.1
"2009-09-16 00:01:30",1244451,6.506,93.6,2.538,0.345,20.77,109.2043,22.85,23.85,26.86,0,111,13.16,23.68,55.6
"2009-09-16 00:02:00",1244452,6.774,91.1,2.038,0.152,20.79,109.2043,22.85,23.84,26.89,0,111,13.16,23.68,53.1
"2009-09-16 00:02:30",1244453,6.638,97.2,2.972,0.296,20.84,109.2043,22.85,23.85,27.05,0,111,13.16,23.68,59.2
"2009-09-16 00:03:00",1244454,6.452,94.7,2.74,0.217,20.78,109.204,22.85,23.82,27.06,0,111,13.16,23.68,56.7
"2009-09-16 00:03:30",1244455,6.019,95.8,2.689,0.25,20.86,109.195,22.83,23.82,27.17,0,111,13.16,23.66,57.8
"2009-09-16 00:04:00",1244456,5.724,101.7,2.934,0.301,20.82,109.1855,22.8,23.81,27.31,0,111,13.16,23.63,63.7
"2009-09-16 00:04:30",1244457,5.569,95.1,4.493,0.486,20.82,109.1807,22.79,23.8,27.2,0,111,13.16,23.62,57.1
"2009-09-16 00:05:00",1244458,5.607,85.8,2.957,0.167,20.82,109.1751,22.78,23.82,27.27,0,111,13.16,23.61,47.8
"2009-09-16 00:05:30",1244459,5.731,89,2.889,0.181,20.77,109.1714,22.77,23.79,27.09,0,111,13.16,23.60,51.0
"2009-09-16 00:06:00",1244460,6.038,90.8,6.225,0.265,20.81,109.1709,22.76,23.8,27.02,0,111,13.16,23.60,52.8
"2009-09-16 00:06:30",1244461,6.179,91.5,3.208,0.287,20.75,109.1706,22.76,23.79,26.89,0,111,13.16,23.60,53.5
"2009-09-16 00:07:00",1244462,5.839,91.4,1.333,0.206,20.75,109.1718,22.77,23.79,26.79,0,111,13.16,23.60,53.4
"2009-09-16 00:07:30",1244463,6.11,96.1,6.087,0.197,20.76,109.1712,22.77,23.79,26.77,0,111,13.16,23.60,58.1
"2009-09-16 00:08:00",1244464,6.479,103.6,2.247,0.168,20.82,109.173,22.77,23.78,27.18,0,111,13.16,23.60,65.6
"2009-09-16 00:08:30",1244465,6.239,106.4,1.717,0.271,20.84,109.1727,22.77,23.79,27.16,0,111,13.15,23.60,68.4
"2009-09-16 00:09:00",1244466,6.341,104.6,2.047,0.15,20.82,109.1727,22.77,23.77,27.17,0,111,13.15,23.60,66.6
"2009-09-16 00:09:30",1244467,5.982,111,3.823,0.214,20.81,109.173,22.77,23.77,27.09,0,111,13.16,23.60,73.0
"2009-09-16 00:10:00",1244468,5.761,110.1,1.435,0.185,20.81,109.1723,22.77,23.76,27.1,0,111,13.15,23.60,72.1
"2009-09-16 00:10:30",1244469,5.939,117.4,3.25,0.21,20.82,109.17,22.76,23.77,26.99,0,111,13.15,23.59,79.4
"2009-09-16 00:11:00",1244470,5.592,117.8,2.988,0.245,20.82,109.1656,22.75,23.76,26.79,0,111,13.16,23.58,79.8
"2009-09-16 00:11:30",1244471,5.905,117,1.376,0.129,20.78,109.1683,22.76,23.76,26.19,0,111,13.16,23.59,79.0
"2009-09-16 00:12:00",1244472,5.921,117.4,1.118,0.094,20.8,109.1662,22.75,23.75,25.94,0,111,13.16,23.58,79.4
"2009-09-16 00:12:30",1244473,5.78,119.2,1.581,0.148,20.8,109.1672,22.76,23.76,25.7,0,111,13.16,23.59,81.2
"2009-09-16 00:13:00",1244474,5.646,119.6,0.817,0.044,20.79,109.1668,22.75,23.75,25.5,0,111,13.16,23.59,81.6
"2009-09-16 00:13:30",1244475,5.655,107.9,5.229,0.136,20.81,109.1661,22.75,23.75,26.27,0,111,13.16,23.58,69.9
"2009-09-16 00:14:00",1244476,5.447,102.7,3.074,0.123,20.81,109.1704,22.76,23.75,26.71,0,111,13.16,23.59,64.7
"2009-09-16 00:14:30",1244477,5.103,101.1,2.47,0.166,20.81,109.1708,22.76,23.75,26.94,0,111,13.16,23.60,63.1
"2009-09-16 00:15:00",1244478,4.803,109.1,3.916,0.256,20.82,109.1726,22.77,23.74,26.65,0,111,13.16,23.60,71.1
"2009-09-16 00:15:30",1244479,4.717,108.6,1.841,0.119,20.8,109.1706,22.76,23.74,26.33,0,111,13.16,23.60,70.6
"2009-09-16 00:16:00",1244480,4.977,105.9,2.299,0.126,20.8,109.1679,22.76,23.75,26.47,0,111,13.16,23.59,67.9
"2009-09-16 00:16:30",1244481,5.005,104.3,3.405,0.125,20.81,109.1668,22.75,23.74,26.58,0,111,13.17,23.59,66.3
"2009-09-16 00:17:00",1244482,5.177,102.9,5.101,0.292,20.79,109.1654,22.75,23.74,26.58,0,111,13.17,23.58,64.9
"2009-09-16 00:17:30",1244483,5.784,98.9,1.312,0.107,20.81,109.166,22.75,23.74,26.56,0,111,13.17,23.58,60.9
"2009-09-16 00:18:00",1244484,5.632,100.4,2.405,0.117,20.81,109.1691,22.76,23.73,26.21,0,111,13.17,23.59,62.4
"2009-09-16 00:18:30",1244485,5.634,102,3.013,0.106,20.79,109.1682,22.76,23.73,26.07,0,111,13.17,23.59,64.0
"2009-09-16 00:19:00",1244486,5.262,105.1,1.42,0.116,20.8,109.1688,22.76,23.74,26.1,0,111,13.17,23.59,67.1
"2009-09-16 00:19:30",1244487,5.224,102.7,1.553,0.146,20.81,109.1721,22.77,23.73,26.13,0,111,13.17,23.60,64.7
"2009-09-16 00:20:00",1244488,5.68,106,2.484,0.323,20.79,109.1734,22.77,23.73,26.18,0,111,13.17,23.60,68.0
"2009-09-16 00:20:30",1244489,6.1,107.6,1.559,0.148,20.8,109.1737,22.77,23.73,26.25,0,111,13.17,23.60,69.6
"2009-09-16 00:21:00",1244490,6.13,105.7,2.252,0.162,20.84,109.1737,22.77,23.74,26.31,0,111,13.17,23.60,67.7
"2009-09-16 00:21:30",1244491,5.521,103.4,3.505,0.158,20.82,109.1737,22.77,23.74,26.35,0,111,13.17,23.60,65.4
"2009-09-16 00:22:00",1244492,5.472,107.4,0.897,0.115,20.81,109.1737,22.77,23.72,25.76,0,111,13.17,23.60,69.4
"2009-09-16 00:22:30",1244493,5.493,104.4,1.503,0.173,20.81,109.1737,22.77,23.74,25.77,0,111,13.17,23.60,66.4
"2009-09-16 00:23:00",1244494,6.119,103.7,1.473,0.191,20.83,109.1728,22.77,23.73,26.05,0,111,13.17,23.60,65.7
"2009-09-16 00:23:30",1244495,6.039,105.4,1.538,0.139,20.83,109.172,22.77,23.73,25.94,0,111,13.17,23.60,67.4
"2009-09-16 00:24:00",1244496,6.084,101.6,1.533,0.163,20.83,109.1689,22.76,23.74,26.16,0,111,13.17,23.59,63.6
"2009-09-16 00:24:30",1244497,5.923,101.8,2.273,0.151,20.84,109.1686,22.76,23.72,26.12,0,111,13.17,23.59,63.8
"2009-09-16 00:25:00",1244498,5.683,101.1,2.657,0.148,20.87,109.1658,22.75,23.74,26,0,111,13.17,23.58,63.1
"2009-09-16 00:25:30",1244499,5.637,101.4,1.487,0.27,20.87,109.1591,22.73,23.73,25.81,0,111,13.17,23.57,63.4
"2009-09-16 00:26:00",1244500,6.028,100,1.074,0.164,20.85,109.1571,22.73,23.72,25.69,0,111,13.17,23.56,62.0
"2009-09-16 00:26:30",1244501,6.246,101,1.054,0.185,20.86,109.1526,22.72,23.72,25.61,0,110.9,13.17,23.55,63.0
"2009-09-16 00:27:00",1244502,5.904,102.1,2.039,0.055,20.89,109.1498,22.71,23.72,25.58,0,111,13.17,23.54,64.1
"2009-09-16 00:27:30",1244503,5.746,104.1,1.996,0.123,20.84,109.1495,22.71,23.73,25.29,0,111,13.17,23.54,66.1
"2009-09-16 00:28:00",1244504,6.027,104.2,2.683,0.161,20.88,109.1484,22.71,23.71,25.26,0,111,13.17,23.54,66.2
"2009-09-16 00:28:30",1244505,5.57,105.7,1.747,0.201,20.83,109.1481,22.71,23.72,25.15,0,111,13.17,23.54,67.7
"2009-09-16 00:29:00",1244506,5.729,105.7,1.081,0.147,20.85,109.1478,22.71,23.72,25.18,0,111,13.17,23.54,67.7
"2009-09-16 00:29:30",1244507,5.601,107.3,1.881,0.221,20.83,109.1467,22.7,23.7,25.29,0,110.9,13.17,23.53,69.3
"2009-09-16 00:30:00",1244508,5.918,109.9,1.095,0.088,20.83,109.1425,22.69,23.71,25.44,0,110.9,13.17,23.52,71.9
"2009-09-16 00:30:30",1244509,5.694,109,2.045,0.129,20.86,109.1431,22.69,23.7,25.44,0,110.9,13.18,23.52,71.0
"2009-09-16 00:31:00",1244510,5.554,106.5,1.116,0.235,20.87,109.1416,22.69,23.7,25.44,0,110.9,13.18,23.52,68.5
"2009-09-16 00:31:30",1244511,5.662,106.5,0.748,0.074,20.81,109.1409,22.69,23.73,25.53,0,110.9,13.18,23.52,68.5
"2009-09-16 00:32:00",1244512,5.936,106.1,0.606,0.059,20.83,109.1415,22.69,23.72,25.42,0,110.9,13.18,23.52,68.1
"2009-09-16 00:32:30",1244513,5.949,105.9,0.814,0.085,20.82,109.1433,22.69,23.72,25.61,0,110.9,13.18,23.53,67.9
"2009-09-16 00:33:00",1244514,5.852,105.2,1.353,0.156,20.88,109.144,22.7,23.71,26.14,0,110.9,13.18,23.53,67.2
"2009-09-16 00:33:30",1244515,5.703,104.5,1.08,0.07,20.84,109.143,22.69,23.72,26.25,0,110.9,13.18,23.52,66.5
"2009-09-16 00:34:00",1244516,5.682,102.8,1.1,0.047,20.85,109.1449,22.7,23.71,26.39,0,110.9,13.18,23.53,64.8
"2009-09-16 00:34:30",1244517,5.904,105.3,0.936,0.142,20.87,109.1433,22.69,23.71,26.58,0,110.9,13.18,23.53,67.3
"2009-09-16 00:35:00",1244518,5.781,104.9,1.027,0.163,20.88,109.1489,22.71,23.72,26.82,0,111,13.18,23.54,66.9
"2009-09-16 00:35:30",1244519,6.011,102.5,0.786,0.219,20.9,109.1504,22.71,23.71,26.73,0,110.9,13.18,23.54,64.5
"2009-09-16 00:36:00",1244520,6.02,103.7,2.001,0.167,20.88,109.1528,22.72,23.71,26.7,0,110.9,13.18,23.55,65.7
"2009-09-16 00:36:30",1244521,6.076,100.9,1.926,0.113,20.85,109.1556,22.73,23.71,26.57,0,110.9,13.18,23.56,62.9
"2009-09-16 00:37:00",1244522,5.901,100,0.797,0.074,20.86,109.1608,22.74,23.71,26.75,0,111,13.18,23.57,62.0
"2009-09-16 00:37:30",1244523,5.512,101.2,1.244,0.145,20.82,109.1606,22.74,23.69,27.09,0,110.9,13.18,23.57,63.2
"2009-09-16 00:38:00",1244524,6,100.6,1.512,0.244,20.85,109.1591,22.73,23.69,27.41,0,110.9,13.19,23.57,62.6
"2009-09-16 00:38:30",1244525,6.139,101.3,1.316,0.161,20.86,109.1583,22.73,23.71,27.75,0,110.9,13.19,23.56,63.3
"2009-09-16 00:39:00",1244526,5.948,102.1,1.224,0.164,20.85,109.1544,22.72,23.69,27.76,0,110.9,13.19,23.55,64.1
"2009-09-16 00:39:30",1244527,6.21,99.8,1.96,0.278,20.85,109.1434,22.69,23.68,27.84,0,110.9,13.19,23.53,61.8
"2009-09-16 00:40:00",1244528,6.639,104.7,2.313,0.303,20.85,109.1364,22.68,23.67,27.87,0,110.9,13.19,23.51,66.7
"2009-09-16 00:40:30",1244529,6.173,105.7,1.708,0.124,20.83,109.1338,22.67,23.69,27.9,0,110.9,13.19,23.50,67.7
"2009-09-16 00:41:00",1244530,6.097,107.2,1.803,0.105,20.83,109.1341,22.67,23.68,27.91,0,110.9,13.19,23.50,69.2
"2009-09-16 00:41:30",1244531,6.202,104.9,0.978,0.096,20.83,109.1338,22.67,23.67,27.88,0,110.9,13.18,23.50,66.9
"2009-09-16 00:42:00",1244532,6.129,104.7,0.834,0.086,20.85,109.1351,22.67,23.66,28.03,0,110.9,13.18,23.50,66.7
"2009-09-16 00:42:30",1244533,6.303,103.8,1.088,0.082,20.86,109.1369,22.68,23.67,28.14,0,110.9,13.18,23.51,65.8
"2009-09-16 00:43:00",1244534,6.199,104.3,0.713,0.083,20.88,109.1363,22.68,23.66,27.94,0,110.9,13.18,23.51,66.3
"2009-09-16 00:43:30",1244535,6.095,105,1.05,0.082,20.87,109.1374,22.68,23.65,27.91,0,110.9,13.18,23.51,67.0
"2009-09-16 00:44:00",1244536,6.249,103.3,1.621,0.183,20.92,109.1254,22.65,23.65,28.14,0,110.9,13.18,23.48,65.3
"2009-09-16 00:44:30",1244537,6.586,103.4,0.758,0.081,20.88,109.1164,22.62,23.64,28.39,0,110.9,13.18,23.46,65.4
"2009-09-16 00:45:00",1244538,6.621,105.4,2.374,0.14,20.84,109.1154,22.62,23.64,28.35,0,110.9,13.18,23.45,67.4
"2009-09-16 00:45:30",1244539,6.818,102.3,1.151,0.06,20.89,109.1104,22.61,23.63,27.96,0,110.9,13.18,23.44,64.3
"2009-09-16 00:46:00",1244540,6.658,101.9,1.099,0.102,20.88,109.1084,22.6,23.63,27.96,0,110.9,13.18,23.44,63.9
"2009-09-16 00:46:30",1244541,6.749,100.7,1.186,0.231,20.87,109.1087,22.61,23.62,27.81,0,110.9,13.18,23.44,62.7
"2009-09-16 00:47:00",1244542,6.793,102.7,1.133,0.163,20.87,109.1093,22.61,23.61,27.79,0,110.9,13.19,23.44,64.7
"2009-09-16 00:47:30",1244543,6.964,102.2,1.106,0.103,20.85,109.1093,22.61,23.61,27.61,0,110.9,13.19,23.44,64.2
"2009-09-16 00:48:00",1244544,7.021,102.9,0.595,0.177,20.85,109.1082,22.6,23.59,27.63,0,110.9,13.19,23.43,64.9
"2009-09-16 00:48:30",1244545,7.55,104.9,0.931,0.198,20.83,109.1031,22.59,23.6,27.49,0,110.9,13.19,23.42,66.9
"2009-09-16 00:49:00",1244546,7.615,104.5,1.194,0.104,20.84,109.0972,22.58,23.58,27.42,0,110.9,13.19,23.41,66.5
"2009-09-16 00:49:30",1244547,7.736,105.7,0.68,0.079,20.79,109.0865,22.55,23.58,27.31,0,110.9,13.19,23.38,67.7
"2009-09-16 00:50:00",1244548,7.607,105.7,0.709,0.123,20.8,109.0789,22.53,23.58,27.3,0,110.9,13.19,23.36,67.7
"2009-09-16 00:50:30",1244549,7.387,105.9,0.719,0.182,20.77,109.0759,22.52,23.55,27.29,0,110.9,13.19,23.35,67.9
"2009-09-16 00:51:00",1244550,7.908,104.6,1.083,0.208,20.79,109.0756,22.52,23.54,26.23,0,110.9,13.19,23.35,66.6
"2009-09-16 00:51:30",1244551,8,103,1.239,0.109,20.84,109.0756,22.52,23.54,25.51,0,110.9,13.19,23.35,65.0
"2009-09-16 00:52:00",1244552,8.12,102.8,0.506,0.096,20.8,109.0756,22.52,23.52,25.62,0,110.9,13.19,23.35,64.8
"2009-09-16 00:52:30",1244553,8.05,102.4,1.067,0.151,20.74,109.075,22.52,23.52,25.92,0,110.9,13.19,23.35,64.4
"2009-09-16 00:53:00",1244554,7.579,101.1,0.742,0.172,20.72,109.0716,22.51,23.51,26.32,0,110.9,13.19,23.34,63.1
"2009-09-16 00:53:30",1244555,7.538,100.9,1.192,0.14,20.78,109.0615,22.48,23.51,26.42,0,110.9,13.19,23.31,62.9
"2009-09-16 00:54:00",1244556,7.909,102.8,0.766,0.14,20.73,109.0511,22.46,23.51,26.04,0,110.9,13.19,23.29,64.8
"2009-09-16 00:54:30",1244557,8.21,102.8,0.505,0.137,20.75,109.0455,22.44,23.48,25.77,0,110.9,13.19,23.27,64.8
"2009-09-16 00:55:00",1244558,8.29,102.9,0.748,0.077,20.72,109.0424,22.43,23.49,25.37,0,110.9,13.19,23.27,64.9
"2009-09-16 00:55:30",1244559,8.09,103.2,0.765,0.096,20.7,109.0418,22.43,23.46,25.36,0,110.9,13.19,23.26,65.2
"2009-09-16 00:56:00",1244560,8.15,103.9,0.555,0.072,20.71,109.0418,22.43,23.46,25.18,0,110.9,13.19,23.26,65.9
"2009-09-16 00:56:30",1244561,8.15,103.6,0.422,0.081,20.7,109.0418,22.43,23.44,25.25,0,110.9,13.19,23.26,65.6
"2009-09-16 00:57:00",1244562,8.38,103.1,0.978,0.143,20.61,109.0418,22.43,23.44,25.4,0,110.9,13.19,23.26,65.1
"2009-09-16 00:57:30",1244563,8.22,104,0.683,0.133,20.6,109.0418,22.43,23.44,25.46,0,110.9,13.19,23.26,66.0
"2009-09-16 00:58:00",1244564,8.05,102.8,0.795,0.1,20.64,109.0404,22.43,23.43,25.4,0,110.9,13.19,23.26,64.8
"2009-09-16 00:58:30",1244565,8.22,101.9,1.036,0.095,20.72,109.0278,22.4,23.43,25.34,0,110.9,13.19,23.23,63.9
"2009-09-16 00:59:00",1244566,8.33,103.4,0.922,0.13,20.65,109.0179,22.37,23.42,25.39,0,110.9,13.19,23.20,65.4
"2009-09-16 00:59:30",1244567,8.31,104.1,0.501,0.082,20.67,109.0117,22.36,23.41,25.31,0,110.9,13.19,23.19,66.1
"2009-09-16 01:00:00",1244568,8.57,103,0.488,0.072,20.64,109.0092,22.35,23.41,25.1,0,110.9,13.19,23.18,65.0
"2009-09-16 01:00:30",1244569,8.52,102.8,0.482,0.077,20.61,109.0081,22.35,23.39,25.22,0,110.9,13.19,23.18,64.8
"2009-09-16 01:01:00",1244570,8.48,103.6,1.353,0.12,20.65,109.0087,22.35,23.4,25.23,0,110.9,13.19,23.18,65.6
"2009-09-16 01:01:30",1244571,8.48,105,0.767,0.089,20.62,109.0084,22.35,23.38,25.34,0,110.9,13.19,23.18,67.0
"2009-09-16 01:02:00",1244572,8.73,104.8,1.06,0.09,20.66,109.0093,22.35,23.38,25.16,0,110.9,13.19,23.18,66.8
"2009-09-16 01:02:30",1244573,8.84,105.8,0.52,0.097,20.62,109.0118,22.36,23.37,24.84,0,110.9,13.19,23.19,67.8
"2009-09-16 01:03:00",1244574,8.77,106.3,0.553,0.089,20.59,109.0107,22.35,23.35,24.74,0,110.9,13.19,23.18,68.3
"2009-09-16 01:03:30",1244575,8.8,106,0.714,0.119,20.62,109.0019,22.33,23.36,24.62,0,110.9,13.19,23.16,68.0
"2009-09-16 01:04:00",1244576,8.72,106.2,0.658,0.153,20.57,108.9919,22.31,23.34,24.54,0,110.9,13.19,23.14,68.2
"2009-09-16 01:04:30",1244577,8.69,105.6,0.517,0.091,20.62,108.9871,22.29,23.33,24.4,0,110.9,13.2,23.12,67.6
"2009-09-16 01:05:00",1244578,8.74,105.7,0.418,0.07,20.63,108.9827,22.28,23.32,24.27,0,110.9,13.2,23.11,67.7
"2009-09-16 01:05:30",1244579,8.91,104.9,0.598,0.084,20.63,108.9792,22.27,23.31,24.01,0,110.9,13.2,23.10,66.9
"2009-09-16 01:06:00",1244580,9.21,104.1,0.493,0.048,20.67,108.9786,22.27,23.32,23.89,0,110.9,13.2,23.10,66.1
"2009-09-16 01:06:30",1244581,9.25,104.2,0.523,0.055,20.59,108.9805,22.28,23.31,23.92,0,110.9,13.2,23.11,66.2
"2009-09-16 01:07:00",1244582,9.34,104.2,0.514,0.156,20.58,108.9808,22.28,23.31,23.98,0,110.9,13.2,23.11,66.2
"2009-09-16 01:07:30",1244583,9.45,103.8,0.277,0.08,20.6,108.9823,22.28,23.3,24.04,0,110.9,13.2,23.11,65.8
"2009-09-16 01:08:00",1244584,9.68,103.9,0.679,0.086,20.6,108.9829,22.28,23.29,24.13,0,110.9,13.2,23.11,65.9
"2009-09-16 01:08:30",1244585,9.75,103.7,0.336,0.111,20.57,108.9854,22.29,23.29,24.08,0,110.9,13.2,23.12,65.7
"2009-09-16 01:09:00",1244586,9.71,103.8,0.04,0.04,20.59,108.9857,22.29,23.28,23.96,0,110.9,13.2,23.12,65.8
"2009-09-16 01:09:30",1244587,9.77,103.9,0.422,0.055,20.57,108.9821,22.28,23.28,23.88,0,110.9,13.2,23.11,65.9
"2009-09-16 01:10:00",1244588,9.65,104.4,0.513,0.063,20.57,108.9761,22.26,23.27,23.91,0,110.9,13.2,23.09,66.4
"2009-09-16 01:10:30",1244589,9.44,104.9,0.252,0.127,20.56,108.9727,22.26,23.27,24.02,0,110.9,13.2,23.09,66.9
"2009-09-16 01:11:00",1244590,9.29,106,0.541,0.171,20.56,108.9684,22.24,23.26,24.17,0,110.9,13.2,23.07,68.0
"2009-09-16 01:11:30",1244591,9.15,106.3,0.344,0.049,20.57,108.9688,22.25,23.26,24.47,0,110.9,13.2,23.08,68.3
"2009-09-16 01:12:00",1244592,9.38,106.1,0.502,0.147,20.56,108.9698,22.25,23.25,24.46,0,110.9,13.2,23.08,68.1
"2009-09-16 01:12:30",1244593,9.49,105.8,0.458,0.085,20.55,108.9653,22.24,23.24,24.3,0,110.9,13.2,23.07,67.8
"2009-09-16 01:13:00",1244594,9.95,104.6,0.741,0.179,20.55,108.9654,22.24,23.25,24.12,0,110.9,13.2,23.07,66.6
"2009-09-16 01:13:30",1244595,10.39,105.9,0.462,0.077,20.53,108.9673,22.24,23.24,24.95,0,110.9,13.2,23.07,67.9
"2009-09-16 01:14:00",1244596,10.59,107.3,0.473,0.086,20.54,108.9694,22.25,23.24,25.92,0,110.9,13.2,23.08,69.3
"2009-09-16 01:14:30",1244597,10.63,108,0.637,0.068,20.53,108.9709,22.25,23.25,26.54,0,110.9,13.2,23.08,70.0
"2009-09-16 01:15:00",1244598,10.7,107.5,0.742,0.089,20.51,108.9706,22.25,23.23,26.52,0,110.9,13.2,23.08,69.5
"2009-09-16 01:15:30",1244599,10.75,106.3,0.33,0.045,20.52,108.9709,22.25,23.22,26.48,0,110.9,13.2,23.08,68.3
"2009-09-16 01:16:00",1244600,10.67,104.7,0.694,0.06,20.52,108.9734,22.26,23.22,26.44,0,110.9,13.2,23.09,66.7
"2009-09-16 01:16:30",1244601,10.51,104.5,0.503,0.051,20.55,108.963,22.23,23.22,26.89,0,110.9,13.2,23.06,66.5
"2009-09-16 01:17:00",1244602,10.57,104.8,0.037,0.049,20.54,108.9522,22.2,23.2,27.49,0,110.9,13.2,23.03,66.8
"2009-09-16 01:17:30",1244603,10.67,105.1,0.416,0.059,20.57,108.9437,22.18,23.2,27.5,0,110.9,13.2,23.01,67.1
"2009-09-16 01:18:00",1244604,10.63,105.2,0.556,0.09,20.53,108.9427,22.18,23.18,27.59,0,110.9,13.2,23.01,67.2
"2009-09-16 01:18:30",1244605,10.69,105.6,0.458,0.117,20.55,108.943,22.18,23.17,27.62,0,110.9,13.2,23.01,67.6
"2009-09-16 01:19:00",1244606,10.6,106.3,0.339,0.111,20.58,108.943,22.18,23.16,27.85,0,110.9,13.2,23.01,68.3
"2009-09-16 01:19:30",1244607,10.36,107.3,0.546,0.055,20.53,108.9383,22.17,23.16,28.33,0,110.9,13.2,23.00,69.3
"2009-09-16 01:20:00",1244608,10.31,107.1,0.574,0.062,20.57,108.9304,22.15,23.15,28.71,0,110.9,13.2,22.98,69.1
"2009-09-16 01:20:30",1244609,10.21,106.7,0.486,0.04,20.54,108.9141,22.11,23.13,28.73,0,110.9,13.2,22.93,68.7
"2009-09-16 01:21:00",1244610,10.19,106.6,0.384,0.06,20.53,108.9099,22.09,23.12,28.85,0,110.9,13.2,22.92,68.6
"2009-09-16 01:21:30",1244611,10.23,106.5,0.338,0.062,20.54,108.9096,22.09,23.1,28.9,0,110.9,13.2,22.92,68.5
"2009-09-16 01:22:00",1244612,10.34,106.3,0.365,0.071,20.54,108.9099,22.09,23.09,28.96,0,110.9,13.2,22.92,68.3
"2009-09-16 01:22:30",1244613,10.33,106.4,0.554,0.064,20.52,108.909,22.09,23.09,29.35,0,110.9,13.2,22.92,68.4
"2009-09-16 01:23:00",1244614,10.39,107.5,0.556,0.063,20.54,108.8978,22.06,23.07,30.16,0,110.9,13.2,22.89,69.5
"2009-09-16 01:23:30",1244615,10.56,108.2,0.534,0.083,20.49,108.8812,22.02,23.07,30.44,0,110.9,13.2,22.85,70.2
"2009-09-16 01:24:00",1244616,10.52,108.6,0.638,0.076,20.48,108.8761,22.01,23.04,30.76,0,110.9,13.21,22.84,70.6
"2009-09-16 01:24:30",1244617,10.35,110,0.838,0.076,20.51,108.8761,22.01,23.03,31.01,0,110.9,13.2,22.84,72.0
"2009-09-16 01:25:00",1244618,10.22,111.5,0.509,0.04,20.53,108.8761,22.01,23.02,30.96,0,110.9,13.21,22.84,73.5
"2009-09-16 01:25:30",1244619,10.14,110.8,0.276,0.034,20.53,108.8742,22,23,30.98,0,110.9,13.21,22.83,72.8
"2009-09-16 01:26:00",1244620,10.12,110.6,0.45,0.036,20.54,108.8542,21.95,22.98,31.02,0,110.9,13.21,22.78,72.6
"2009-09-16 01:26:30",1244621,10.28,109.3,0.548,0.051,20.49,108.8429,21.92,22.97,31.08,0,110.9,13.21,22.75,71.3
"2009-09-16 01:27:00",1244622,10.5,108.7,0.195,0.106,20.47,108.8424,21.92,22.96,31.66,0,110.9,13.21,22.75,70.7
"2009-09-16 01:27:30",1244623,10.64,109.1,0.522,0.051,20.48,108.8424,21.92,22.95,31.93,0,110.9,13.21,22.75,71.1
"2009-09-16 01:28:00",1244624,10.79,108.8,0.363,0.07,20.45,108.8424,21.92,22.94,31.97,0,110.9,13.21,22.75,70.8
"2009-09-16 01:28:30",1244625,10.78,109.1,0.527,0.055,20.47,108.8396,21.91,22.92,32.03,0,110.9,13.21,22.74,71.1
"2009-09-16 01:29:00",1244626,10.74,110.1,0.487,0.058,20.5,108.8204,21.87,22.92,32.19,0,110.9,13.21,22.69,72.1
"2009-09-16 01:29:30",1244627,10.76,109,0.737,0.039,20.46,108.8103,21.84,22.9,32.16,0,110.9,13.21,22.67,71.0
"2009-09-16 01:30:00",1244628,10.94,108.5,0.429,0.038,20.42,108.8086,21.83,22.87,32.3,0,110.9,13.21,22.66,70.5
"2009-09-16 01:30:30",1244629,10.92,108.3,0.489,0.054,20.4,108.8086,21.83,22.86,32.54,0,110.9,13.21,22.66,70.3
"2009-09-16 01:31:00",1244630,10.92,107.6,0.034,0.045,20.33,108.8086,21.83,22.85,32.63,0,110.9,13.21,22.66,69.6
"2009-09-16 01:31:30",1244631,10.89,107.6,0.034,0.063,20.32,108.8044,21.82,22.83,32.58,0,110.9,13.21,22.65,69.6
"2009-09-16 01:32:00",1244632,10.75,107.2,0.523,0.052,20.42,108.7861,21.78,22.84,32.59,0,110.9,13.21,22.60,69.2
"2009-09-16 01:32:30",1244633,10.74,107.5,0.27,0.042,20.41,108.7763,21.75,22.81,32.44,0,110.9,13.2,22.58,69.5
"2009-09-16 01:33:00",1244634,10.71,108.2,0.542,0.037,20.36,108.7749,21.75,22.79,32.47,0,110.9,13.2,22.58,70.2
"2009-09-16 01:33:30",1244635,10.71,108.2,0.533,0.053,20.41,108.7749,21.75,22.78,32.55,0,110.9,13.2,22.58,70.2
"2009-09-16 01:34:00",1244636,10.66,108.5,0.836,0.077,20.43,108.7749,21.75,22.78,32.66,0,110.9,13.2,22.58,70.5
"2009-09-16 01:34:30",1244637,10.72,108.5,0.398,0.063,20.41,108.7746,21.75,22.76,32.94,0,110.9,13.2,22.58,70.5
"2009-09-16 01:35:00",1244638,10.73,109.1,0.506,0.048,20.48,108.7642,21.72,22.76,33.14,0,110.8,13.2,22.55,71.1
"2009-09-16 01:35:30",1244639,10.75,110.2,0.6,0.04,20.49,108.7518,21.69,22.73,33.33,0,110.9,13.2,22.52,72.2
"2009-09-16 01:36:00",1244640,10.68,110.8,0.264,0.031,20.47,108.7428,21.67,22.72,33.4,0,110.8,13.2,22.49,72.8
"2009-09-16 01:36:30",1244641,10.76,111,0.386,0.041,20.39,108.7411,21.66,22.71,33.52,0,110.9,13.2,22.49,73.0
"2009-09-16 01:37:00",1244642,10.73,111.5,0.528,0.068,20.42,108.7411,21.66,22.71,33.63,0,110.8,13.2,22.49,73.5
"2009-09-16 01:37:30",1244643,10.6,111.3,0.521,0.058,20.44,108.7411,21.66,22.7,33.84,0,110.8,13.21,22.49,73.3
"2009-09-16 01:38:00",1244644,10.43,110.8,0.191,0.052,20.51,108.7406,21.66,22.67,33.87,0,110.8,13.21,22.49,72.8
"2009-09-16 01:38:30",1244645,10.34,110.7,0.32,0.054,20.53,108.7392,21.66,22.67,33.76,0,110.9,13.21,22.48,72.7
"2009-09-16 01:39:00",1244646,10.32,110.5,0.504,0.034,20.54,108.7386,21.66,22.65,33.69,0,110.9,13.21,22.48,72.5
"2009-09-16 01:39:30",1244647,10.33,110.9,0.042,0.031,20.53,108.7324,21.64,22.65,33.74,0,110.8,13.21,22.47,72.9
"2009-09-16 01:40:00",1244648,10.32,111.4,0.507,0.036,20.53,108.7285,21.63,22.64,33.8,0,110.8,13.21,22.46,73.4
"2009-09-16 01:40:30",1244649,10.25,111.3,0.519,0.033,20.55,108.7223,21.61,22.65,33.87,0,110.8,13.21,22.44,73.3
"2009-09-16 01:41:00",1244650,10.29,111,0.313,0.034,20.54,108.72,21.61,22.64,33.85,0,110.8,13.21,22.43,73.0
"2009-09-16 01:41:30",1244651,10.38,111.2,0.476,0.062,20.52,108.7173,21.6,22.64,33.85,0,110.8,13.21,22.43,73.2
"2009-09-16 01:42:00",1244652,10.53,111.4,0.518,0.06,20.45,108.7164,21.6,22.62,33.75,0,110.8,13.21,22.43,73.4
"2009-09-16 01:42:30",1244653,10.57,111.7,0.411,0.04,20.4,108.7164,21.6,22.63,33.67,0,110.8,13.21,22.43,73.7
"2009-09-16 01:43:00",1244654,10.68,111.7,0.351,0.033,20.41,108.7162,21.6,22.62,33.61,0,110.8,13.21,22.42,73.7
"2009-09-16 01:43:30",1244655,10.7,111.9,0.174,0.057,20.39,108.7142,21.59,22.62,33.58,0,110.8,13.21,22.42,73.9
"2009-09-16 01:44:00",1244656,10.7,112,0.265,0.048,20.39,108.7102,21.58,22.61,33.64,0,110.8,13.21,22.41,74.0
"2009-09-16 01:44:30",1244657,10.7,113.4,0.425,0.035,20.48,108.7083,21.58,22.62,33.6,0,110.8,13.21,22.40,75.4
"2009-09-16 01:45:00",1244658,10.56,113.6,0.187,0.046,20.51,108.7095,21.58,22.62,33.62,0,110.8,13.21,22.41,75.6
"2009-09-16 01:45:30",1244659,10.6,112.5,0.614,0.05,20.45,108.7129,21.59,22.6,33.56,0,110.8,13.21,22.42,74.5
"2009-09-16 01:46:00",1244660,10.74,111.8,0.259,0.045,20.33,108.7107,21.58,22.61,33.57,0,110.8,13.21,22.41,73.8
"2009-09-16 01:46:30",1244661,10.77,111.8,0.014,0.03,20.36,108.7156,21.6,22.6,33.58,0,110.8,13.21,22.42,73.8
"2009-09-16 01:47:00",1244662,10.66,112,0.316,0.081,20.39,108.7169,21.6,22.6,33.38,0,110.8,13.21,22.43,74.0
"2009-09-16 01:47:30",1244663,10.57,112.3,0.341,0.053,20.4,108.7169,21.6,22.59,33.2,0,110.8,13.21,22.43,74.3
"2009-09-16 01:48:00",1244664,10.6,112.6,0.337,0.04,20.44,108.7208,21.61,22.59,32.99,0,110.8,13.21,22.44,74.6
"2009-09-16 01:48:30",1244665,10.46,112.1,0.321,0.044,20.35,108.7202,21.61,22.58,32.83,0,110.8,13.21,22.44,74.1